Regional Weather Roundup
Issued by NWS

Home | Current Version | Previous Version | Text Only | Print | Product List | Glossary Off
Versions: 1 2 3 4 5 6 7 8 9 10 11 12 13 14 15 16 17 18 19 20 21 22 23 24 25 26 27 28 29 30 31 32 33 34 35 36 37 38 39 40 41 42 43 44 45 46 47 48 49 50

000
ASUS45 KBOI 300210
RWRID
WEATHER ROUNDUP FOR IDAHO
NATIONAL WEATHER SERVICE BOISE ID
800 PM MDT FRI AUG 29 2014

NOTE: "FAIR" INDICATES FEW OR NO CLOUDS BELOW 12000 FEET
WITH NO SIGNIFICANT WEATHER AND/OR OBSTRUCTIONS TO VISIBILITY

IDZ012-014-300300-
SOUTHWEST IDAHO


CITY           SKY/WX    TMP DP  RH WIND       PRES   REMARKS
BOISE          MOCLDY    87  41  19 W5        29.79F
CALDWELL       MOCLDY    82  46  28 N7        29.78F
MOUNTAIN HOME  LGT RAIN  84  46  26 SE8G24    29.81R
$$

IDZ016-017-300300-
SOUTHCENTRAL IDAHO


CITY           SKY/WX    TMP DP  RH WIND       PRES   REMARKS
BURLEY         MOCLDY    78  43  28 NW15G23   29.90F
JEROME         CLOUDY    75  46  35 E10       29.90R
TWIN FALLS     CLOUDY    74  50  42 S6        29.90F
$$

IDZ019>023-300300-
SOUTHEAST IDAHO


CITY           SKY/WX    TMP DP  RH WIND       PRES   REMARKS
IDAHO FALLS    CLEAR     74  48  39 SW9       29.96F
POCATELLO      PTCLDY    78  42  27 SW10      29.95F
REXBURG        PTCLDY    73  43  33 CALM      29.97F
$$

IDZ006-010-011-018-031-032-300300-
CENTRAL IDAHO MOUNTAINS


CITY           SKY/WX    TMP DP  RH WIND       PRES   REMARKS
MCCALL         MOCLDY    71  40  32 S5        29.93F
HAILEY         PTCLDY    77  39  25 SW5       29.99S
STANLEY          N/A     71  31  22 W7        30.05F
SALMON         PTCLDY    73  54  49 CALM      29.81S
CHALLIS        PTCLDY    78  33  19 W10       29.91F
$$

IDZ002-004-006-007-026-300300-
NORTHERN IDAHO


CITY           SKY/WX    TMP DP  RH WIND       PRES   REMARKS
LEWISTON       MOCLDY    83  36  18 NW15G30   29.77F
LOWELL           N/A     73  54  51 VRB3      29.75R
COEUR D`ALENE  CLOUDY    75  41  29 SW9       29.80S
MULLAN PASS    MOCLDY    59  31  34 VRB6      30.00S
$$



USA.gov is the U.S. government's official web portal to all federal, state and local government web resources and services.